{"data":{"norad_id":68006,"intl_designator":"2026-039W","name":"STARLINK-36889","alt_names":[],"object_type":"PAYLOAD","status":"ACTIVE","operator":null,"country":"US","launch_date":"2026-02-27","launch_site_code":"AFETR","launch_vehicle":null,"mission":null,"orbit_class":"UNKNOWN","rcs_meters":null,"size_class":null,"mass_kg":null,"dimensions":null,"purposes":["comms"],"wikipedia_slug":null,"has_3d_model":false,"image_url":null,"decayed_at":null,"tle_current":{"epoch":"2026-05-24T22:33:59.352192Z","epoch_age_seconds":76881,"freshness":"FRESH","line1":"1 68006U 26039W   26144.94027028  .00018259  00000+0  67117-3 0  9998","line2":"2 68006  43.0046 338.4218 0001847 271.2970  88.7670 15.27591375 13360","mean_motion":15.27591375,"eccentricity":0.0001847,"inclination_deg":43.0046,"raan_deg":338.4218,"arg_perigee_deg":271.297,"mean_anomaly_deg":88.767,"bstar":0.00067117,"rev_number":1336,"period_min":94.266046769215,"perigee_km":481.74778062794,"apogee_km":484.28229018982,"semimajor_km":6861.1520354089,"source":"CELESTRAK","updated_at":"2026-05-25T13:38:21.783318Z"}}}